Airfield :
LOGIN :

Register | Disclaimer

   EN    FR    IT 

 










Legend :    VFR   Marginal VFR   IFR   Intensive IFR   Very Intensive IFR
Visi :
Ceiling :
>= 8 km
>= 3000ft
5 to 8 km
1000 to 3000 ft
1500m to 5 km
500 to 1000 ft
800 to 1500m
200 to 500 ft
< 800m
< 200 ft
Symbols :   Thunderstorms  Fog  Heavy snow  Heavy precipitations  Wind > 20 kt
SIGMETs :     Misc.  Thunderstorms  Icing  Turbulence  Mountain Waves  Volcanic Ashes







- Airport Elevation : 228 ft
- IATA code : OPO


LPPR - Porto Fr. Sa Carneiro

CURRENT METAR :
  • 262030Z 35014KT CAVOK 15/13 Q1019

EXPIRED METARs :
  • 262000Z 34015KT CAVOK 15/13 Q1019
  • 261930Z 34017KT CAVOK 16/13 Q1018
  • 261900Z 35012KT CAVOK 17/13 Q1018
  • 261830Z 34016KT 300V360 CAVOK 18/14 Q1018
  • 261800Z 34015KT 310V010 CAVOK 19/14 Q1018

TAF TAF LPPR
Valid from the 26 at 18:00 until the 27 at 18:00 UTC


261700Z 2618/2718 32013KT CAVOK
BECMG 2619/2622 35008KT
TEMPO 2700/2706 VRB03KT
BECMG 2710/2712 32013KT 9999 SCT025
BECMG 2715/2717 CAVOK
No reported NOTAMs for that airfield.



MET'MAP, your aeronautical weather chart ! - Copyright ORBIFLY December 2007 - Disclaimer

ORBIFLY MET'MAP TEAM :

Programming & Development : Alexandra Zaïnal
Concept & Development : Baudouin d'Aumeries
Co-Development & Prog : Marc-Olivier Méhu
Technical & hardware support : Manuel Goepfert

Contact : metmap@orbifly.com




SOURCES & CREDITS :

   NOAA